Regional Weather Roundup
Issued by NWS

Home | Current Version | Previous Version | Text Only | Print | Product List | Glossary On
Versions: 1 2 3 4 5 6 7 8 9 10 11 12 13 14 15 16 17 18 19 20 21 22 23 24 25 26 27
000
ASUS45 KBOI 280410
RWRID

IDAHO REGIONAL WEATHER ROUNDUP
NATIONAL WEATHER SERVICE BOISE ID
1000 PM MDT FRI MAY 27 2016

NOTE: "FAIR" INDICATES FEW OR NO CLOUDS BELOW 12000 FEET
WITH NO SIGNIFICANT WEATHER AND/OR OBSTRUCTIONS TO VISIBILITY

IDZ012-014-280500-
SOUTHWEST IDAHO


CITY           SKY/WX    TMP DP  RH WIND       PRES   REMARKS
BOISE          CLEAR     60  27  28 NW9       29.95R
CALDWELL       CLEAR     59  32  36 NW7       29.96R
MOUNTAIN HOME  CLEAR     62  32  32 NW8       29.94R
$$

IDZ016-017-280500-
SOUTHCENTRAL IDAHO


CITY           SKY/WX    TMP DP  RH WIND       PRES   REMARKS
BURLEY         CLEAR     54  31  41 SW9       29.95R
JEROME         CLEAR     53  29  39 W8        29.95R
TWIN FALLS     CLEAR     51  29  42 SW10      29.97R
$$

IDZ019>023-280500-
SOUTHEAST IDAHO


CITY           SKY/WX    TMP DP  RH WIND       PRES   REMARKS
IDAHO FALLS    PTCLDY    53  33  46 SW10      29.94R
POCATELLO      CLEAR     54  39  57 SW13      29.95R
REXBURG        CLOUDY    54  32  43 SW9       29.92R
$$

IDZ006-010-011-018-031-032-280500-
CENTRAL IDAHO MOUNTAINS


CITY           SKY/WX    TMP DP  RH WIND       PRES   REMARKS
MCCALL         CLEAR     45  31  58 W6        29.99R
HAILEY         CLEAR     48  36  61 SE7       29.94R
STANLEY          N/A     40  27  59 CALM      30.00R
SALMON         CLOUDY    52  39  62 CALM      29.96R
CHALLIS        CLEAR     48  36  63 N9        29.95R
$$

IDZ002-004-006-007-026-280500-
NORTHERN IDAHO


CITY           SKY/WX    TMP DP  RH WIND       PRES   REMARKS
LEWISTON       MOCLDY    57  37  47 S3        30.01S
LOWELL           N/A     51  45  79 N3        30.03R
COEUR D`ALENE  MOCLDY    54  36  50 SE7       29.96R
MULLAN PASS    CLEAR     35  23  61 SW7       30.01S WCI  29
$$




USA.gov is the U.S. government's official web portal to all federal, state and local government web resources and services.